GW5732 Weather Reports


Display with metric or nautical units.
time (UTC)temp
F
wind
direction
speed
MPH
gust
MPH
rain 1hr
in
rain 24hr
in
rain mn
in
humidity
%
barometer
mb
20260905234526 94 309 0.0 0.0 0.00 0.00 0.00 55 1007.3
20260905234026 95 308 0.0 0.0 0.00 0.00 0.00 55 1007.4
20260905233521 95 308 2.0 3.0 0.00 0.00 0.00 54 1007.4
20260905233021 95 316 0.0 0.0 0.00 0.00 0.00 53 1007.5
20260905232516 96 291 0.0 0.0 0.00 0.00 0.00 52 1007.5
20260905232012 96 317 1.0 2.0 0.00 0.00 0.00 51 1007.5
20260905231507 96 319 0.0 0.0 0.00 0.00 0.00 51 1007.3
20260905231004 96 316 4.0 6.0 0.00 0.00 0.00 50 1007.4
20260905230502 97 321 4.0 4.0 0.00 0.00 0.00 49 1007.3
20260905230000 97 301 2.0 2.0 0.00 0.00 0.00 49 1007.3
20260905225456 97 304 3.0 3.0 0.00 0.00 0.00 48 1007.4
20260905224951 98 337 5.0 6.0 0.00 0.00 0.00 47 1007.3
20260905224446 97 329 5.0 6.0 0.00 0.00 0.00 47 1007.2
20260905223945 97 327 4.0 7.0 0.00 0.00 0.00 47 1007.2
20260905223443 98 319 4.0 6.0 0.00 0.00 0.00 46 1007.0
20260905222938 98 337 5.0 7.0 0.00 0.00 0.00 46 1007.1
20260905222438 99 276 2.0 3.0 0.00 0.00 0.00 46 1007.2
20260905221933 99 326 4.0 4.0 0.00 0.00 0.00 45 1006.9
20260905221430 100 305 5.0 6.0 0.00 0.00 0.00 44 1006.9
20260905220926 100 346 5.0 6.0 0.00 0.00 0.00 44 1006.9
20260905220422 100 323 5.0 7.0 0.00 0.00 0.00 43 1007.0
20260905215920 100 314 2.0 6.0 0.00 0.00 0.00 43 1007.1
20260905215416 100 326 7.0 8.0 0.00 0.00 0.00 44 1006.9
20260905214913 100 310 5.0 7.0 0.00 0.00 0.00 43 1007.2
20260905214408 101 354 5.0 6.0 0.00 0.00 0.00 42 1007.1
20260905213908 101 302 5.0 8.0 0.00 0.00 0.00 41 1007.0
20260905213404 101 291 6.0 9.0 0.00 0.00 0.00 41 1007.1
20260905212859 101 274 3.0 4.0 0.00 0.00 0.00 43 1007.0
20260905212354 101 282 5.0 6.0 0.00 0.00 0.00 43 1007.1
20260905211853 101 351 9.0 13.0 0.00 0.00 0.00 42 1007.2
20260905211349 102 280 6.0 7.0 0.00 0.00 0.00 42 1007.2
20260905210845 102 256 2.0 3.0 0.00 0.00 0.00 41 1007.3
20260905210345 102 249 2.0 2.0 0.00 0.00 0.00 41 1007.2
20260905205844 101 273 5.0 6.0 0.00 0.00 0.00 43 1007.4
20260905205339 101 260 1.0 2.0 0.00 0.00 0.00 42 1007.4
20260905204838 102 231 4.0 4.0 0.00 0.00 0.00 41 1007.5
20260905204335 102 297 6.0 7.0 0.00 0.00 0.00 41 1007.6
20260905203833 102 342 3.0 4.0 0.00 0.00 0.00 41 1007.5
20260905203329 103 350 3.0 4.0 0.00 0.00 0.00 40 1007.8
20260905202825 102 311 3.0 4.0 0.00 0.00 0.00 40 1007.9
20260905202319 102 290 3.0 3.0 0.00 0.00 0.00 42 1007.7
20260905201815 102 298 4.0 7.0 0.00 0.00 0.00 42 1007.8
20260905201310 100 252 2.0 2.0 0.00 0.00 0.00 42 1007.8
20260905200804 101 259 3.0 3.0 0.00 0.00 0.00 43 1007.8
20260905200301 101 295 5.0 6.0 0.00 0.00 0.00 43 1007.9
20260905195758 101 347 5.0 7.0 0.00 0.00 0.00 43 1008.0
20260905195253 102 237 4.0 6.0 0.00 0.00 0.00 40 1008.1
20260905194749 101 276 2.0 2.0 0.00 0.00 0.00 44 1007.9
20260905194249 101 349 4.0 6.0 0.00 0.00 0.00 42 1008.2
20260905193748 101 264 1.0 2.0 0.00 0.00 0.00 43 1008.2
20260905193243 101 284 5.0 6.0 0.00 0.00 0.00 43 1008.3
20260905192738 101 275 2.0 3.0 0.00 0.00 0.00 43 1008.5
20260905192235 101 267 3.0 4.0 0.00 0.00 0.00 44 1008.4
20260905191734 101 274 3.0 3.0 0.00 0.00 0.00 44 1008.4
20260905191232 100 264 6.0 8.0 0.00 0.00 0.00 47 1008.6
20260905190731 100 267 2.0 3.0 0.00 0.00 0.00 46 1008.6
20260905190230 99 264 1.0 1.0 0.00 0.00 0.00 48 1009.0
20260905185729 100 345 6.0 7.0 0.00 0.00 0.00 44 1009.0
20260905185224 101 281 4.0 7.0 0.00 0.00 0.00 47 1008.8
20260905184719 99 269 4.0 6.0 0.00 0.00 0.00 46 1008.8
20260905184218 99 351 3.0 4.0 0.00 0.00 0.00 47 1008.8
20260905183717 98 325 1.0 1.0 0.00 0.00 0.00 49 1009.2
20260905183213 99 295 5.0 7.0 0.00 0.00 0.00 48 1009.2
20260905182713 99 328 4.0 4.0 0.00 0.00 0.00 46 1009.2
20260905182212 99 317 1.0 1.0 0.00 0.00 0.00 49 1009.0
20260905181708 99 334 3.0 6.0 0.00 0.00 0.00 48 1009.2
20260905181206 99 257 2.0 2.0 0.00 0.00 0.00 49 1009.2
20260905180701 98 296 3.0 6.0 0.00 0.00 0.00 50 1009.6
20260905180157 98 249 4.0 6.0 0.00 0.00 0.00 50 1009.4
20260905175655 99 270 6.0 8.0 0.00 0.00 0.00 49 1009.6
20260905175151 98 260 3.0 3.0 0.00 0.00 0.00 52 1009.3
20260905174647 98 243 3.0 3.0 0.00 0.00 0.00 52 1009.5
20260905174142 97 249 6.0 7.0 0.00 0.00 0.00 50 1009.4
20260905173638 98 241 3.0 4.0 0.00 0.00 0.00 52 1009.5
20260905173134 98 286 4.0 7.0 0.00 0.00 0.00 52 1009.5
20260905172632 97 249 0.0 1.0 0.00 0.00 0.00 51 1009.6
20260905172127 97 292 5.0 6.0 0.00 0.00 0.00 51 1009.8
20260905171624 97 307 4.0 6.0 0.00 0.00 0.00 51 1009.7
20260905171119 97 274 1.0 2.0 0.00 0.00 0.00 53 1009.7
20260905170616 97 316 4.0 6.0 0.00 0.00 0.00 52 1009.8
20260905170112 96 259 3.0 4.0 0.00 0.00 0.00 54 1010.0
20260905165611 95 248 2.0 3.0 0.00 0.00 0.00 57 1010.1
20260905165107 95 253 4.0 4.0 0.00 0.00 0.00 58 1009.8
20260905164602 95 248 2.0 3.0 0.00 0.00 0.00 55 1010.0
20260905164101 95 252 1.0 2.0 0.00 0.00 0.00 56 1010.2
20260905163558 95 243 3.0 4.0 0.00 0.00 0.00 57 1010.4
20260905163054 94 298 3.0 4.0 0.00 0.00 0.00 56 1010.4
20260905162550 95 245 2.0 3.0 0.00 0.00 0.00 57 1010.2
20260905162049 95 336 6.0 7.0 0.00 0.00 0.00 56 1010.6
20260905161549 94 242 0.0 0.0 0.00 0.00 0.00 57 1010.6
20260905161047 95 234 4.0 4.0 0.00 0.00 0.00 58 1010.4
20260905160545 95 298 4.0 6.0 0.00 0.00 0.00 56 1010.3
20260905160045 94 287 2.0 3.0 0.00 0.00 0.00 57 1010.4
20260905155540 93 285 1.0 2.0 0.00 0.00 0.00 59 1010.6
20260905155038 93 274 5.0 6.0 0.00 0.00 0.00 58 1010.6
20260905154534 93 330 3.0 4.0 0.00 0.00 0.00 57 1010.6
20260905154029 93 273 2.0 3.0 0.00 0.00 0.00 60 1010.6
20260905153525 93 269 1.0 2.0 0.00 0.00 0.00 58 1010.7
20260905153025 93 306 4.0 4.0 0.00 0.00 0.00 60 1010.8
20260905152525 92 267 1.0 1.0 0.00 0.00 0.00 62 1010.8
20260905152020 92 222 2.0 3.0 0.00 0.00 0.00 63 1010.8
20260905151515 92 301 5.0 7.0 0.00 0.00 0.00 62 1010.6
20260905151011 91 264 3.0 4.0 0.00 0.00 0.00 64 1010.6
20260905150505 91 250 2.0 3.0 0.00 0.00 0.00 66 1010.5
20260905150003 91 289 6.0 8.0 0.00 0.00 0.00 64 1010.5
20260905145457 90 261 1.0 2.0 0.00 0.00 0.00 66 1010.6
20260905144956 90 271 3.0 3.0 0.00 0.00 0.00 65 1010.5
20260905144452 90 236 2.0 3.0 0.00 0.00 0.00 65 1010.5
20260905143950 89 278 3.0 3.0 0.00 0.00 0.00 66 1010.7
20260905143449 89 203 2.0 3.0 0.00 0.00 0.00 68 1010.8
20260905142944 88 238 2.0 2.0 0.00 0.00 0.00 69 1010.7
20260905142443 88 253 2.0 2.0 0.00 0.00 0.00 71 1010.8
20260905141939 87 246 4.0 4.0 0.00 0.00 0.00 72 1010.6
20260905141433 87 244 2.0 2.0 0.00 0.00 0.00 72 1010.5
20260905140930 87 216 2.0 3.0 0.00 0.00 0.00 73 1010.8
20260905140425 86 213 2.0 2.0 0.00 0.00 0.00 74 1010.8
20260905135924 85 213 1.0 1.0 0.00 0.00 0.00 78 1010.6
20260905135420 85 212 3.0 4.0 0.00 0.00 0.00 77 1011.0
20260905134915 84 213 3.0 3.0 0.00 0.00 0.00 78 1011.0
20260905134414 84 212 3.0 3.0 0.00 0.00 0.00 78 1010.7
20260905133908 83 212 4.0 4.0 0.00 0.00 0.00 81 1010.8
20260905133403 83 211 3.0 3.0 0.00 0.00 0.00 80 1010.7
20260905132903 83 211 3.0 3.0 0.00 0.00 0.00 81 1010.7
20260905132358 83 211 1.0 2.0 0.00 0.00 0.00 81 1010.7
20260905131858 83 210 2.0 3.0 0.00 0.00 0.00 81 1011.0
20260905131354 83 221 2.0 3.0 0.00 0.00 0.00 81 1010.7
20260905130848 83 222 3.0 4.0 0.00 0.00 0.00 80 1010.6
20260905130347 82 261 2.0 2.0 0.00 0.00 0.00 81 1010.7
20260905125843 82 261 1.0 2.0 0.00 0.00 0.00 82 1010.6
20260905125337 81 261 1.0 2.0 0.00 0.00 0.00 83 1010.7
20260905124834 81 261 2.0 2.0 0.00 0.00 0.00 83 1010.5
20260905124330 80 261 1.0 1.0 0.00 0.00 0.00 83 1010.7
20260905123830 80 261 0.0 0.0 0.00 0.00 0.00 84 1010.6
20260905123327 81 261 0.0 1.0 0.00 0.00 0.00 84 1010.6
20260905122826 80 261 0.0 0.0 0.00 0.00 0.00 86 1010.3
20260905122326 78 261 0.0 0.0 0.00 0.00 0.00 87 1010.3
20260905121821 78 261 0.0 0.0 0.00 0.00 0.00 89 1010.3
20260905121318 77 261 0.0 0.0 0.00 0.00 0.00 90 1010.4
20260905120816 77 261 0.0 0.0 0.00 0.00 0.00 90 1010.3
20260905120312 77 261 0.0 0.0 0.00 0.00 0.00 90 1010.2
20260905115812 77 261 0.0 0.0 0.00 0.00 0.00 90 1010.3
20260905115311 77 261 0.0 0.0 0.00 0.00 0.00 90 1010.2
20260905114811 77 261 0.0 0.0 0.00 0.00 0.00 89 1010.3
20260905114310 77 261 0.0 0.0 0.00 0.00 0.00 89 1010.1
20260905113810 77 261 0.0 0.0 0.00 0.00 0.00 89 1010.2
20260905113306 77 261 0.0 0.0 0.00 0.00 0.00 88 1010.2
20260905112801 77 261 1.0 2.0 0.00 0.00 0.00 88 1009.9
20260905112255 78 261 0.0 0.0 0.00 0.00 0.00 87 1010.0
20260905111751 77 262 0.0 1.0 0.00 0.00 0.00 88 1010.0
20260905111251 77 261 1.0 1.0 0.00 0.00 0.00 88 1010.1
20260905110750 77 261 1.0 1.0 0.00 0.00 0.00 89 1010.3
20260905110244 77 261 1.0 1.0 0.00 0.00 0.00 89 1010.3
20260905105740 76 262 1.0 1.0 0.00 0.00 0.00 90 1010.0
20260905105239 76 261 0.0 0.0 0.00 0.00 0.00 91 1009.8
20260905104733 76 261 0.0 0.0 0.00 0.00 0.00 91 1009.9
20260905104230 76 261 0.0 0.0 0.00 0.00 0.00 91 1009.9
20260905103724 76 261 0.0 0.0 0.00 0.00 0.00 91 1009.9
20260905103220 76 261 0.0 0.0 0.00 0.00 0.00 90 1010.0
20260905102716 76 261 0.0 0.0 0.00 0.00 0.00 90 1010.1
20260905102212 76 261 0.0 0.0 0.00 0.00 0.00 90 1010.0
20260905101711 76 261 0.0 1.0 0.00 0.00 0.00 90 1009.9
20260905101209 76 261 0.0 0.0 0.00 0.00 0.00 90 1009.8
20260905100706 76 261 1.0 1.0 0.00 0.00 0.00 90 1009.8
20260905100200 76 261 1.0 1.0 0.00 0.00 0.00 90 1009.9
20260905095700 76 261 0.0 0.0 0.00 0.00 0.00 90 1009.8
20260905095154 76 261 0.0 0.0 0.00 0.00 0.00 90 1009.7
20260905094650 76 261 0.0 0.0 0.00 0.00 0.00 90 1009.8
20260905094149 76 261 0.0 0.0 0.00 0.00 0.00 90 1009.8
20260905093644 76 261 0.0 0.0 0.00 0.00 0.00 90 1009.8
20260905093140 76 261 0.0 0.0 0.00 0.00 0.00 90 1009.8
20260905092640 76 261 0.0 0.0 0.00 0.00 0.00 90 1009.8
20260905092136 76 262 0.0 0.0 0.00 0.00 0.00 90 1009.5
20260905091635 76 262 0.0 0.0 0.00 0.00 0.00 90 1009.7
20260905091135 76 262 0.0 0.0 0.00 0.00 0.00 90 1009.7
20260905090630 76 261 0.0 0.0 0.00 0.00 0.00 90 1009.7
20260905090126 76 262 0.0 0.0 0.00 0.00 0.00 90 1009.5
20260905085624 76 262 0.0 0.0 0.00 0.00 0.00 89 1009.7
20260905085120 77 262 0.0 0.0 0.00 0.00 0.00 89 1009.8
20260905084619 77 261 0.0 0.0 0.00 0.00 0.00 89 1009.8
20260905084115 76 261 0.0 0.0 0.00 0.00 0.00 89 1009.9
20260905083615 76 262 0.0 0.0 0.00 0.00 0.00 89 1009.8
20260905083111 76 262 0.0 0.0 0.00 0.00 0.00 89 1009.7
20260905082606 76 262 0.0 0.0 0.00 0.00 0.00 90 1009.9
20260905082102 76 261 0.0 0.0 0.00 0.00 0.00 89 1009.8
20260905081601 76 261 0.0 0.0 0.00 0.00 0.00 89 1009.8
20260905081057 77 261 0.0 0.0 0.00 0.00 0.00 89 1009.9
20260905080556 77 262 0.0 0.0 0.00 0.00 0.00 89 1009.9
20260905080052 77 262 0.0 0.0 0.00 0.00 0.00 89 1010.0
20260905075551 77 262 0.0 0.0 0.00 0.00 0.00 88 1009.8
20260905075050 77 261 0.0 0.0 0.00 0.00 0.00 88 1009.8
20260905074550 77 261 0.0 0.0 0.00 0.00 0.00 88 1010.0
20260905074046 77 261 0.0 0.0 0.00 0.00 0.00 88 1009.9
20260905073541 77 261 0.0 1.0 0.00 0.00 0.00 88 1009.7
20260905073037 77 262 0.0 0.0 0.00 0.00 0.00 87 1010.0
20260905072535 77 262 0.0 0.0 0.00 0.00 0.00 87 1009.9
20260905072031 77 262 0.0 0.0 0.00 0.00 0.00 88 1009.9
20260905071528 77 262 0.0 0.0 0.00 0.00 0.00 88 1009.9
20260905071028 77 262 0.0 0.0 0.00 0.00 0.00 89 1010.0
20260905070523 77 261 0.0 0.0 0.00 0.00 0.00 88 1010.0
20260905070019 77 261 0.0 0.0 0.00 0.00 0.00 89 1010.1
20260905065517 77 262 0.0 0.0 0.00 0.00 0.00 89 1009.8
20260905065012 77 262 0.0 0.0 0.00 0.00 0.00 89 1010.1
20260905064507 77 262 0.0 0.0 0.00 0.00 0.00 88 1010.2
20260905064003 77 261 0.0 0.0 0.00 0.00 0.00 88 1010.2
20260905063502 77 262 0.0 0.0 0.00 0.00 0.00 88 1010.1
20260905062959 77 262 0.0 0.0 0.00 0.00 0.00 87 1010.1
20260905062458 78 262 0.0 0.0 0.00 0.00 0.00 87 1010.3
20260905061953 78 262 0.0 0.0 0.00 0.00 0.00 86 1010.2
20260905061448 78 262 0.0 0.0 0.00 0.00 0.00 86 1010.2
20260905060947 78 261 0.0 0.0 0.00 0.00 0.00 86 1010.3
20260905060443 79 262 0.0 1.0 0.00 0.00 0.00 85 1010.2
20260905055943 79 262 1.0 2.0 0.00 0.00 0.00 85 1010.2
20260905055443 79 261 0.0 0.0 0.00 0.00 0.00 84 1010.0
20260905054943 79 261 0.0 0.0 0.00 0.00 0.00 84 1010.3
20260905054438 79 261 0.0 0.0 0.00 0.00 0.00 84 1010.4
20260905053938 79 261 0.0 0.0 0.00 0.00 0.00 84 1010.5
20260905053434 79 261 0.0 0.0 0.00 0.00 0.00 83 1010.4
20260905052929 80 261 0.0 0.0 0.00 0.00 0.00 83 1010.4
20260905052428 80 261 0.0 0.0 0.00 0.00 0.00 83 1010.2
20260905051928 80 261 0.0 0.0 0.00 0.00 0.00 82 1010.7
20260905051424 81 261 0.0 0.0 0.00 0.00 0.00 80 1010.1
20260905050921 82 261 0.0 0.0 0.00 0.00 0.00 80 1010.2
20260905050417 82 261 1.0 1.0 0.00 0.00 0.00 78 1010.1
20260905045912 82 261 1.0 1.0 0.00 0.00 0.00 78 1010.1
20260905045408 81 261 1.0 1.0 0.00 0.00 0.00 79 1010.2
20260905044903 81 261 0.0 0.0 0.00 0.00 0.00 81 1010.2
20260905044358 81 261 0.0 0.0 0.00 0.00 0.00 81 1010.0
20260905043856 82 261 0.0 0.0 0.00 0.00 0.00 79 1010.2
20260905043351 81 261 0.0 0.0 0.00 0.00 0.00 80 1010.2
20260905042846 80 261 0.0 1.0 0.00 0.00 0.00 81 1010.1
20260905042346 81 261 0.0 0.0 0.00 0.00 0.00 82 1010.2
20260905041841 81 261 0.0 0.0 0.00 0.00 0.00 81 1010.3
20260905041338 82 261 0.0 0.0 0.00 0.00 0.00 79 1010.2
20260905040837 82 261 0.0 1.0 0.00 0.00 0.00 79 1010.1
20260905040337 83 261 1.0 1.0 0.00 0.00 0.00 78 1010.1
20260905035836 82 261 1.0 1.0 0.00 0.00 0.00 78 1010.0
20260905035332 82 261 0.0 1.0 0.00 0.00 0.00 80 1010.3
20260905034828 81 261 0.0 0.0 0.00 0.00 0.00 82 1010.0
20260905034324 81 261 0.0 0.0 0.00 0.00 0.00 82 1010.2
20260905033822 81 261 0.0 0.0 0.00 0.00 0.00 80 1010.4
20260905033317 81 261 0.0 0.0 0.00 0.00 0.00 80 1010.5
20260905032817 81 261 0.0 0.0 0.00 0.00 0.00 81 1010.5
20260905032313 82 261 0.0 0.0 0.00 0.00 0.00 81 1010.4
20260905031808 82 261 0.0 0.0 0.00 0.00 0.00 80 1010.6
20260905031304 82 261 0.0 0.0 0.00 0.00 0.00 79 1010.4
20260905030758 82 261 0.0 0.0 0.00 0.00 0.00 79 1010.4
20260905030254 83 261 0.0 0.0 0.00 0.00 0.00 79 1010.4
20260905025748 82 261 0.0 0.0 0.00 0.00 0.00 78 1010.5
20260905025243 82 261 0.0 0.0 0.00 0.00 0.00 78 1010.5
20260905024739 83 261 0.0 0.0 0.00 0.00 0.00 77 1010.6
20260905024235 83 261 0.0 0.0 0.00 0.00 0.00 78 1010.3
20260905023735 82 261 0.0 0.0 0.00 0.00 0.00 79 1010.2
20260905023229 83 261 0.0 0.0 0.00 0.00 0.00 80 1010.4
20260905022724 83 261 0.0 0.0 0.00 0.00 0.00 79 1010.2
20260905022220 83 261 0.0 0.0 0.00 0.00 0.00 79 1010.1
20260905021718 83 261 0.0 0.0 0.00 0.00 0.00 80 1010.2
20260905021214 84 261 0.0 0.0 0.00 0.00 0.00 79 1010.2
20260905020709 83 261 0.0 0.0 0.00 0.00 0.00 80 1010.1
20260905020204 84 261 0.0 0.0 0.00 0.00 0.00 78 1010.2
20260905015703 84 261 0.0 0.0 0.00 0.00 0.00 78 1010.1
20260905015202 84 261 0.0 0.0 0.00 0.00 0.00 78 1010.1
20260905014700 84 261 0.0 0.0 0.00 0.00 0.00 77 1009.7
20260905014156 85 261 0.0 0.0 0.00 0.00 0.00 76 1009.7
20260905013653 85 261 0.0 0.0 0.00 0.00 0.00 75 1009.8
20260905013148 85 262 0.0 0.0 0.00 0.00 0.00 75 1009.3
20260905012643 85 261 0.0 0.0 0.00 0.00 0.00 74 1009.7
20260905012140 86 262 0.0 0.0 0.00 0.00 0.00 73 1009.4
20260905011636 86 262 0.0 0.0 0.00 0.00 0.00 74 1009.6
20260905011131 86 262 0.0 0.0 0.00 0.00 0.00 73 1009.4
20260905010626 87 262 0.0 0.0 0.00 0.00 0.00 73 1009.3
20260905010122 87 262 0.0 0.0 0.00 0.00 0.00 72 1009.2
20260905005618 87 262 0.0 0.0 0.00 0.00 0.00 71 1009.3
20260905005113 88 262 0.0 0.0 0.00 0.00 0.00 70 1009.2
20260905004608 88 261 0.0 0.0 0.00 0.00 0.00 68 1009.1
20260905004103 89 261 0.0 0.0 0.00 0.00 0.00 67 1009.2
20260905003559 89 261 0.0 0.0 0.00 0.00 0.00 68 1009.1
20260905003055 89 261 0.0 0.0 0.00 0.00 0.00 66 1009.3
20260905002549 90 262 0.0 0.0 0.00 0.00 0.00 66 1009.2
20260905002049 90 262 0.0 0.0 0.00 0.00 0.00 64 1009.2
20260905001545 91 262 0.0 0.0 0.00 0.00 0.00 64 1009.3
20260905001044 92 262 0.0 0.0 0.00 0.00 0.00 63 1009.0
20260905000539 92 262 0.0 0.0 0.00 0.00 0.00 61 1009.1
20260905000036 93 262 0.0 0.0 0.00 0.00 0.00 59 1009.0
20260904235530 93 262 0.0 0.0 0.00 0.00 0.00 60 1008.9
20260904235030 94 262 0.0 0.0 0.00 0.00 0.00 58 1009.0